Wind_Speed
3 2 2 2 4 5 5 5 6 5 5 6 5 5 4 5 5 5 5 5 6 6 6 6 6 6 6 7 8 9 9 9 8 8 7 7 6 6 5 5 5 4 4 4 4 5 5 5 4
6 5 5 4 4 5 7 7 7 8 8 8 8 7 6 5 5 5 5 6 6 6 6 6 6 7 7 7 8 9 9 9 9 9 9 9 8 8 8 8 7 7 6 5 4 4 4 5 4
8 8 7 7 7 8 9 9 9 10 10 10 10 9 8 7 7 6 6 7 7 6 6 6 6 7 7 7 8 8 9 9 10 10 10 10 11 11 11 11 10 10 10 9 7 6 5 5 5
10 10 10 10 11 12 12 12 11 11 11 11 11 10 9 8 8 7 7 7 7 7 7 7 6 7 7 8 8 8 9 10 11 12 12 12 13 13 13 13 13 13 13 12 11 10 9 8 7
13 12 12 12 14 15 15 14 13 12 11 11 10 10 10 9 9 8 7 7 8 8 8 7 7 8 9 9 10 11 12 13 14 14 15 15 15 16 16 16 16 16 16 15 14 14 13 11 10
15 14 13 14 18 18 18 17 15 13 12 11 10 10 10 9 9 9 9 9 9 10 10 10 10 11 11 12 13 14 15 16 17 17 18 18 19 19 19 19 19 19 19 18 18 17 16 15 14
17 16 17 18 20 21 21 19 17 14 12 10 9 9 10 10 10 10 10 10 11 11 12 12 13 14 16 17 18 19 19 20 21 21 21 22 23 23 23 23 23 23 22 21 21 20 20 19 18
18 18 18 20 21 23 22 21 19 16 13 12 10 11 11 12 12 11 11 12 13 14 15 16 17 19 20 20 21 22 24 24 25 26 26 26 27 27 28 28 27 26 25 24 23 23 23 22 22
19 19 19 22 23 24 24 23 21 18 17 15 14 13 13 13 12 13 14 15 16 17 18 19 20 21 22 23 25 26 27 28 29 30 30 31 30 30 31 31 31 30 28 27 26 25 24 24 24
21 20 21 23 23 24 25 25 24 22 21 20 18 17 16 15 15 16 17 18 19 21 22 23 23 24 25 27 29 29 30 30 31 32 33 33 34 34 34 33 33 33 31 30 29 27 26 25 25
21 21 22 22 24 24 25 26 26 26 25 23 21 20 20 19 20 21 21 22 22 24 25 26 27 28 28 29 30 31 31 31 32 34 36 36 36 37 37 36 36 36 34 33 31 30 28 27 26
22 22 23 23 25 24 25 27 28 28 28 27 26 24 24 23 23 24 24 24 25 26 27 28 29 29 30 31 31 31 32 33 33 32 34 37 38 38 39 39 39 38 37 35 34 32 31 29 28
21 21 22 23 24 25 25 27 28 29 29 29 29 28 28 27 27 27 27 27 28 29 29 30 31 31 32 32 33 33 33 33 35 35 35 36 38 39 39 39 41 40 39 38 36 35 33 31 29
20 20 21 22 22 23 25 26 27 28 29 29 29 29 29 29 29 28 28 28 29 30 31 32 33 34 34 35 36 35 35 34 35 36 36 37 38 39 39 40 41 42 41 40 38 37 35 32 31
19 18 20 21 21 21 22 24 25 25 26 27 28 28 29 29 29 29 29 29 30 31 33 34 36 36 37 38 37 37 36 36 36 36 37 39 39 39 40 42 42 43 43 41 40 38 37 35 32
16 16 18 20 20 20 20 22 22 22 23 23 24 25 25 27 28 29 30 30 32 34 35 37 38 39 40 40 39 38 36 35 34 35 36 35 35 37 40 42 42 43 43 42 41 39 38 35 33
11 10 14 18 19 20 20 21 21 21 21 21 21 22 22 24 26 28 29 31 33 35 38 39 40 41 42 40 38 38 35 34 34 35 35 33 33 34 37 39 40 41 42 42 41 40 38 36 34
9 10 13 16 18 19 20 21 21 20 20 20 21 21 22 23 25 27 30 32 34 37 39 40 42 42 41 40 39 38 36 36 36 36 35 34 33 34 35 37 38 40 41 41 40 40 38 36 34
10 10 13 16 16 17 19 20 20 20 20 21 21 22 23 25 27 29 32 34 36 38 39 39 40 40 39 40 40 39 38 38 38 37 36 35 34 34 34 35 36 38 39 39 38 38 37 35 34
7 8 11 13 13 14 15 15 16 17 18 19 21 22 24 26 28 30 32 34 36 37 37 37 37 38 39 40 41 41 41 41 40 39 38 37 36 34 32 32 34 35 37 38 39 37 37 35 34
7 7 10 11 10 10 11 12 13 14 16 17 19 21 24 26 28 29 30 31 32 34 35 36 38 39 40 41 41 42 42 43 43 42 41 40 38 36 33 32 32 34 36 37 37 38 36 35 35
7 8 8 9 8 10 9 12 13 14 16 18 20 22 24 26 27 29 30 32 34 35 37 38 40 42 43 44 44 44 45 45 45 44 43 42 40 38 36 34 33 33 35 36 38 38 36 35 35
7 7 8 8 9 10 10 10 17 16 18 20 22 23 25 27 29 31 32 34 36 37 39 41 42 44 45 46 46 47 47 47 47 47 46 44 43 41 39 38 36 34 34 36 37 37 36 36 36
7 7 8 9 10 10 13 12 18 18 20 22 24 25 27 28 30 32 33 35 37 38 40 42 43 44 46 47 48 48 49 49 49 49 49 47 46 44 43 42 41 40 39 38 39 39 37 37 37
6 7 9 10 10 12 17 15 18 19 20 22 25 26 27 29 31 33 34 36 37 39 40 42 43 44 46 46 47 47 47 47 47 47 48 48 47 47 47 46 46 45 44 43 43 42 41 41 40
8 8 9 10 10 14 18 16 17 18 20 22 24 26 28 30 32 34 36 37 38 39 40 42 42 43 43 44 45 45 45 44 44 44 44 45 46 47 47 49 49 49 49 49 48 47 46 45 44
9 9 11 11 12 12 15 17 16 18 21 23 25 27 29 31 34 36 37 38 39 40 41 41 41 41 41 42 42 42 41 41 41 42 42 43 44 46 47 48 49 51 52 53 54 53 52 50 49
8 9 9 9 10 10 13 18 19 19 22 24 26 28 31 33 36 37 38 39 40 41 41 41 41 40 40 40 39 40 40 41 42 43 44 46 46 47 48 49 51 52 53 54 57 57 57 55 53
7 8 8 9 9 10 12 18 19 21 23 26 28 31 33 36 38 39 40 41 41 41 41 41 41 41 40 40 40 40 42 44 45 46 48 49 50 50 51 51 51 53 56 58 58 59 61 61 59
7 8 8 10 12 13 15 19 19 22 25 27 30 33 35 38 39 41 42 43 42 42 42 42 42 42 41 42 42 43 45 47 48 50 51 52 53 54 54 55 55 55 57 59 61 62 64 65 65
Wind_Direction
302 317 333 343 355 358 347 345 343 337 343 351 348 342 330 317 316 316 314 308 306 309 313 319 329 327 321 312 306 302 299 296 295 294 292 288 287 289 294 302 312 322 333 348 2 10 16 22 24
289 294 296 302 325 326 311 319 323 324 331 336 333 324 317 313 309 308 311 310 309 312 315 322 328 326 320 311 305 301 296 294 293 293 291 289 289 289 289 291 294 296 298 303 314 331 344 354 2
285 285 285 289 292 284 290 298 307 313 320 325 324 319 313 309 304 304 305 307 310 313 317 322 325 323 318 311 304 300 296 294 294 293 292 291 291 291 290 289 288 289 288 287 287 292 303 316 323
278 279 280 282 283 281 284 289 298 306 313 317 316 310 305 302 303 302 301 303 306 307 308 314 316 315 310 305 301 298 295 294 294 295 295 294 294 292 291 289 286 284 282 280 278 278 279 285 291
276 274 274 278 276 279 284 288 294 299 306 310 309 300 295 291 291 292 293 298 302 301 302 306 307 305 302 299 298 296 295 295 296 297 296 295 293 292 290 288 286 282 279 275 273 272 270 270 272
273 273 266 263 269 276 280 286 292 296 301 304 302 296 289 283 283 284 285 288 290 293 296 299 299 298 297 297 296 297 296 296 296 296 295 294 293 292 290 288 285 282 278 274 271 269 267 266 265
269 268 263 261 265 271 277 283 287 294 295 296 294 287 283 276 275 274 275 280 283 289 293 294 295 295 296 297 296 296 295 294 294 294 295 294 293 291 289 286 283 280 278 275 271 268 265 264 263
268 266 263 260 260 264 271 276 282 287 286 287 284 282 279 275 270 268 271 279 284 288 291 292 293 294 294 295 295 295 294 294 293 293 293 292 291 290 288 285 283 280 277 275 272 268 265 263 262
269 266 262 258 257 260 265 269 276 281 282 281 278 279 283 281 276 271 274 279 284 287 290 291 291 293 295 297 297 295 293 293 293 292 291 290 288 286 285 283 281 278 276 273 271 268 265 264 262
271 267 262 261 260 258 260 263 268 272 275 277 279 280 283 283 281 279 279 281 284 289 290 291 290 292 295 296 296 294 292 292 293 291 289 288 285 283 281 280 277 275 273 271 270 267 265 264 262
272 267 263 261 258 257 256 258 261 265 270 275 277 280 282 282 283 284 282 284 287 290 290 291 292 293 295 297 296 294 294 294 295 291 287 285 285 282 279 276 274 273 271 269 267 266 265 263 261
272 267 264 263 262 259 257 257 259 262 266 271 273 276 279 281 282 285 285 285 287 288 288 288 291 293 295 296 294 295 295 293 294 295 289 284 283 281 278 274 271 270 268 266 265 265 264 262 261
270 269 267 266 265 265 263 261 262 264 266 268 270 272 273 276 277 279 282 284 286 287 286 287 289 291 293 294 294 293 294 292 291 290 290 289 287 281 277 274 270 266 265 264 262 263 262 260 259
268 269 270 269 269 269 268 267 267 267 268 269 270 270 271 271 273 276 278 280 282 282 283 284 286 289 292 293 292 291 293 293 291 292 290 289 287 282 275 273 269 264 262 261 260 261 260 259 258
268 270 271 271 272 271 272 270 269 270 269 269 270 270 270 270 270 272 274 276 278 279 281 283 285 288 290 292 293 293 293 293 291 291 291 291 287 283 277 272 268 262 259 258 258 259 258 257 255
268 272 272 273 274 275 275 274 275 274 274 274 274 273 271 268 268 270 272 273 276 278 281 283 286 288 290 291 292 292 293 292 292 292 293 293 289 285 279 272 267 262 257 255 255 257 257 254 253
269 259 265 276 276 278 277 276 278 279 279 278 278 277 275 271 270 271 273 276 278 281 283 285 287 288 288 289 291 291 293 292 293 294 293 294 289 285 279 271 264 260 256 255 254 255 255 254 252
249 257 269 274 277 278 277 277 279 280 279 277 277 276 275 275 276 277 278 280 282 285 287 287 288 289 288 289 291 291 291 291 291 293 294 294 291 289 283 271 262 258 255 254 254 254 253 252 250
263 266 271 276 279 278 278 276 275 276 276 276 277 277 279 280 281 282 283 285 286 288 290 290 290 289 289 289 289 289 288 288 289 291 293 292 290 288 286 273 261 256 252 250 252 251 249 248 246
277 279 283 287 286 285 283 281 279 278 278 278 280 282 284 285 286 287 287 288 289 290 291 291 293 291 290 289 288 287 287 287 287 288 288 288 288 287 285 275 262 257 252 250 249 249 246 244 243
279 277 283 293 296 293 293 293 288 288 289 289 291 291 292 292 294 294 294 293 292 293 293 292 292 292 291 291 289 288 287 286 286 286 285 285 286 285 282 275 265 258 253 250 247 247 244 241 241
272 282 288 299 308 308 308 302 300 302 301 299 298 297 298 299 299 299 298 297 296 296 295 294 293 293 292 291 290 288 287 286 285 284 283 282 281 279 277 271 265 259 254 250 246 245 242 240 239
259 282 293 301 305 306 309 302 299 305 304 303 301 301 301 302 302 302 301 300 298 298 297 296 296 295 294 293 291 290 288 287 286 284 283 281 278 274 270 267 264 259 254 251 246 244 242 240 239
276 288 302 311 316 307 302 304 297 306 304 303 302 303 303 303 303 303 302 301 300 299 298 297 296 295 293 292 290 289 288 286 285 284 282 280 276 272 268 264 260 256 252 250 249 246 244 241 238
285 298 307 309 307 292 298 300 298 304 304 305 307 308 307 307 306 306 305 304 303 301 300 298 297 295 293 292 291 289 288 286 285 283 281 278 275 271 266 262 258 255 251 248 247 247 245 242 238
288 283 278 277 283 289 301 304 308 307 309 311 312 312 312 312 311 310 308 307 305 304 302 301 299 298 295 294 292 291 290 288 286 284 281 279 276 272 267 262 257 253 250 248 246 245 245 243 240
287 281 282 289 296 302 301 309 311 314 316 318 318 318 318 317 316 314 313 311 310 308 307 306 304 302 299 297 294 292 290 288 286 284 282 279 276 272 268 264 258 254 250 247 246 244 242 241 240
292 297 301 302 302 305 307 314 322 323 323 324 324 324 323 322 321 320 318 316 314 313 312 310 308 306 303 300 297 294 291 289 288 286 284 281 277 273 270 266 261 255 250 247 244 243 241 240 239
312 313 316 318 320 321 316 310 328 327 328 328 329 328 327 326 325 324 322 320 318 317 316 314 312 309 307 304 301 297 295 293 291 289 286 283 279 274 270 266 262 257 252 248 245 242 240 239 237
328 330 333 334 331 330 328 322 332 331 332 332 332 331 329 329 328 327 325 323 321 320 318 316 314 311 308 306 303 301 298 296 294 292 289 285 280 275 271 266 262 258 253 249 245 243 239 237 237
Height
5932 5932 5932 5933 5934 5935 5934 5934 5933 5932 5931 5930 5929 5928 5927 5927 5927 5928 5925 5923 5922 5922 5921 5920 5920 5920 5919 5919 5918 5918 5917 5917 5916 5915 5914 5913 5912 5911 5910 5909 5908 5908 5907 5906 5906 5905 5905 5904 5903
5932 5932 5933 5933 5934 5936 5934 5933 5932 5932 5931 5930 5928 5927 5926 5925 5925 5924 5922 5921 5921 5920 5919 5919 5918 5918 5918 5918 5917 5917 5916 5915 5914 5914 5913 5912 5911 5910 5909 5909 5908 5907 5906 5906 5905 5904 5904 5904 5903
5931 5931 5933 5933 5933 5934 5933 5932 5932 5931 5930 5929 5928 5926 5925 5924 5923 5922 5921 5920 5919 5918 5917 5917 5917 5917 5916 5916 5916 5915 5914 5914 5913 5912 5911 5910 5910 5909 5908 5908 5907 5906 5905 5905 5904 5903 5903 5903 5902
5930 5931 5932 5933 5932 5931 5931 5931 5930 5930 5929 5928 5926 5925 5924 5923 5921 5920 5919 5918 5917 5916 5916 5915 5915 5915 5915 5914 5914 5913 5912 5912 5911 5910 5909 5908 5908 5907 5906 5906 5905 5904 5904 5903 5903 5902 5902 5901 5901
5928 5929 5931 5931 5930 5929 5929 5929 5929 5928 5927 5926 5925 5924 5922 5921 5919 5919 5918 5917 5916 5915 5914 5914 5913 5913 5913 5912 5912 5911 5910 5909 5909 5908 5907 5906 5905 5904 5904 5903 5902 5902 5901 5901 5900 5900 5899 5899 5899
5927 5927 5929 5930 5927 5927 5926 5926 5926 5926 5926 5925 5923 5922 5920 5919 5918 5917 5916 5915 5914 5913 5913 5912 5912 5912 5911 5910 5910 5909 5908 5907 5906 5905 5904 5903 5902 5901 5900 5900 5899 5899 5898 5898 5897 5897 5896 5896 5896
5924 5925 5925 5925 5925 5924 5923 5923 5923 5924 5923 5922 5921 5920 5918 5917 5916 5915 5914 5913 5912 5911 5911 5910 5910 5909 5908 5908 5907 5906 5905 5903 5902 5901 5900 5899 5899 5898 5897 5896 5895 5894 5894 5894 5893 5893 5892 5892 5892
5920 5922 5922 5922 5921 5921 5920 5920 5920 5921 5920 5920 5919 5918 5917 5915 5914 5913 5912 5911 5910 5909 5909 5908 5907 5906 5905 5904 5903 5902 5901 5900 5898 5897 5896 5895 5894 5893 5892 5891 5890 5889 5889 5889 5889 5888 5888 5888 5888
5916 5919 5918 5917 5917 5917 5916 5917 5917 5917 5917 5916 5916 5916 5915 5914 5912 5911 5910 5909 5908 5907 5906 5905 5904 5903 5902 5901 5899 5898 5896 5895 5894 5892 5891 5889 5888 5887 5886 5885 5884 5884 5884 5883 5883 5883 5883 5883 5883
5912 5914 5913 5912 5912 5912 5912 5913 5913 5913 5912 5912 5913 5913 5912 5912 5911 5909 5908 5907 5906 5905 5903 5902 5901 5900 5898 5897 5895 5893 5891 5890 5888 5886 5885 5883 5882 5880 5879 5878 5878 5877 5877 5877 5877 5877 5877 5877 5877
5908 5908 5907 5906 5906 5907 5908 5908 5908 5909 5908 5909 5909 5909 5909 5908 5907 5906 5905 5904 5903 5901 5900 5898 5897 5896 5894 5892 5890 5888 5886 5884 5881 5879 5877 5876 5875 5873 5872 5871 5870 5870 5870 5870 5871 5871 5871 5871 5871
5903 5902 5902 5902 5901 5902 5903 5903 5903 5904 5905 5905 5905 5905 5904 5904 5903 5902 5901 5900 5899 5897 5895 5894 5892 5891 5889 5887 5885 5882 5880 5877 5875 5872 5870 5868 5866 5865 5863 5863 5862 5862 5862 5863 5864 5864 5864 5864 5864
5897 5897 5897 5897 5897 5898 5898 5898 5898 5899 5900 5900 5900 5900 5899 5899 5898 5897 5896 5895 5894 5892 5890 5888 5886 5885 5883 5881 5878 5876 5873 5870 5868 5865 5862 5860 5858 5856 5855 5854 5853 5853 5854 5855 5856 5857 5857 5858 5858
5892 5892 5892 5892 5893 5893 5893 5893 5893 5894 5894 5894 5894 5894 5894 5893 5892 5891 5890 5889 5888 5886 5884 5882 5880 5878 5876 5874 5871 5869 5866 5863 5860 5857 5854 5851 5848 5846 5845 5844 5844 5844 5845 5846 5848 5849 5850 5851 5851
5887 5888 5888 5888 5888 5888 5889 5888 5888 5888 5888 5888 5888 5888 5888 5887 5886 5886 5885 5883 5882 5880 5878 5875 5873 5871 5869 5866 5863 5860 5857 5854 5851 5848 5845 5842 5838 5836 5834 5833 5834 5835 5836 5837 5839 5841 5842 5843 5844
5884 5885 5884 5883 5883 5884 5886 5884 5883 5883 5883 5882 5882 5882 5881 5881 5880 5880 5879 5877 5875 5873 5871 5868 5866 5863 5860 5858 5854 5851 5848 5846 5843 5840 5836 5832 5828 5825 5824 5823 5824 5825 5826 5828 5830 5832 5834 5835 5836
5881 5883 5881 5880 5879 5879 5880 5879 5878 5878 5878 5877 5877 5876 5876 5875 5874 5874 5872 5871 5869 5866 5863 5861 5858 5855 5852 5849 5846 5843 5840 5837 5835 5831 5827 5824 5820 5816 5814 5813 5813 5815 5817 5819 5822 5824 5825 5827 5829
5881 5880 5878 5877 5876 5876 5876 5875 5874 5874 5873 5873 5872 5871 5870 5870 5869 5867 5865 5864 5861 5858 5855 5852 5849 5845 5842 5839 5837 5834 5832 5829 5826 5823 5819 5816 5812 5809 5805 5803 5803 5804 5807 5810 5813 5815 5817 5819 5821
5875 5876 5875 5874 5873 5872 5871 5871 5870 5869 5869 5868 5867 5866 5865 5864 5862 5860 5858 5856 5853 5850 5846 5843 5839 5836 5833 5830 5827 5824 5822 5819 5817 5814 5811 5807 5804 5801 5797 5794 5794 5795 5797 5800 5803 5806 5808 5811 5813
5872 5873 5872 5871 5870 5869 5868 5867 5866 5865 5864 5863 5862 5861 5859 5858 5856 5853 5850 5848 5844 5841 5837 5834 5830 5826 5823 5820 5817 5814 5811 5809 5806 5804 5802 5799 5796 5793 5789 5787 5786 5787 5788 5791 5795 5797 5799 5801 5804
5871 5871 5870 5868 5867 5866 5865 5863 5862 5861 5860 5858 5857 5855 5853 5851 5849 5846 5843 5839 5836 5832 5829 5825 5821 5817 5813 5809 5806 5803 5801 5798 5796 5793 5791 5789 5786 5783 5781 5779 5779 5779 5780 5783 5785 5788 5790 5793 5795
5869 5868 5867 5866 5865 5864 5863 5863 5859 5857 5856 5854 5852 5850 5848 5845 5842 5839 5835 5831 5828 5824 5820 5816 5811 5807 5803 5799 5795 5792 5789 5786 5784 5781 5779 5778 5776 5774 5772 5771 5771 5771 5773 5774 5776 5778 5780 5783 5786
5866 5865 5865 5864 5863 5862 5861 5861 5857 5854 5852 5850 5847 5845 5842 5839 5836 5832 5828 5824 5819 5815 5810 5806 5801 5796 5792 5787 5783 5780 5776 5773 5771 5768 5767 5766 5764 5763 5762 5762 5762 5763 5764 5765 5766 5768 5770 5773 5777
5864 5864 5863 5862 5862 5861 5859 5858 5855 5851 5849 5846 5843 5840 5837 5833 5829 5825 5820 5816 5811 5806 5801 5796 5791 5786 5781 5776 5772 5768 5764 5761 5758 5755 5753 5752 5752 5751 5751 5751 5751 5752 5754 5755 5756 5758 5760 5763 5767
5863 5864 5864 5862 5861 5860 5856 5854 5852 5848 5845 5842 5838 5835 5831 5827 5822 5818 5813 5808 5803 5797 5792 5787 5781 5776 5770 5765 5760 5755 5751 5748 5745 5742 5739 5738 5737 5737 5737 5737 5738 5740 5742 5744 5745 5747 5750 5753 5757
5861 5862 5863 5862 5860 5858 5852 5850 5847 5844 5840 5837 5834 5830 5825 5821 5816 5810 5805 5800 5794 5788 5782 5776 5771 5765 5759 5753 5748 5743 5738 5734 5731 5728 5726 5723 5722 5721 5721 5722 5724 5725 5728 5730 5733 5736 5739 5742 5746
5859 5858 5857 5857 5855 5853 5851 5846 5843 5839 5836 5833 5828 5824 5819 5814 5809 5803 5797 5791 5785 5778 5772 5765 5759 5753 5747 5741 5736 5731 5726 5722 5719 5715 5712 5710 5708 5706 5706 5706 5708 5710 5712 5715 5718 5722 5726 5729 5734
5857 5855 5854 5853 5852 5851 5848 5843 5840 5835 5832 5827 5823 5818 5813 5807 5801 5794 5788 5781 5775 5768 5761 5754 5748 5741 5735 5730 5724 5719 5714 5710 5706 5702 5699 5696 5693 5691 5690 5690 5691 5693 5695 5698 5702 5706 5710 5715 5720
5855 5853 5851 5850 5848 5846 5844 5843 5836 5831 5827 5822 5817 5812 5806 5800 5793 5786 5779 5771 5764 5757 5750 5743 5736 5730 5724 5718 5712 5707 5702 5696 5691 5687 5683 5679 5677 5674 5673 5673 5673 5675 5677 5680 5684 5689 5693 5699 5704
5852 5851 5849 5847 5845 5842 5840 5839 5832 5827 5822 5817 5812 5806 5799 5792 5785 5777 5769 5762 5754 5747 5739 5732 5725 5718 5712 5706 5700 5694 5688 5681 5675 5670 5665 5661 5658 5655 5653 5653 5654 5655 5657 5660 5665 5670 5675 5681 5687